CW7229 Weather Reports


time (UTC)temp
F
wind
direction
speed
knots
gust
knots
rain 1hr
in
rain 24hr
in
rain mn
in
humidity
%
barometer
mb
20260507093113 47 83 6.1 8.7 0.00 0.92 0.23 64 1011.8
20260507090113 47 44 4.3 7.0 0.00 0.92 0.23 66 1011.8
20260507083113 47 58 5.2 7.0 0.01 0.95 0.23 67 1011.8
20260507080113 47 37 6.1 7.8 0.01 0.95 0.23 70 1010.8
20260507070113 47 87 3.5 7.0 0.01 0.99 0.23 79 1010.8
20260507063113 47 46 6.1 9.6 0.01 1.08 0.23 79 1009.8
20260507060132 46 25 1.7 7.0 0.01 1.07 0.21 80 1009.8
20260507053113 46 105 5.2 7.8 0.01 1.23 0.21 81 1009.8
20260507050132 46 49 4.3 7.8 0.02 1.22 0.21 82 1008.8
20260507043113 46 74 4.3 7.0 0.04 1.39 0.21 82 1008.8
20260507033113 47 89 3.5 7.0 0.03 1.47 0.16 82 1008.8
20260507030113 47 79 5.2 9.6 0.05 1.46 0.15 82 1008.8
20260507023113 48 36 7.0 10.4 0.05 1.62 0.14 83 1007.8
20260507020112 49 79 3.5 7.0 0.03 1.58 0.10 83 1007.8
20260507013112 49 360 4.3 7.0 0.01 1.71 0.08 83 1007.7
20260507010113 49 71 5.2 8.7 0.03 1.71 0.08 83 1006.7
20260507003112 49 48 2.6 7.0 0.03 1.84 0.07 83 1006.7
20260507000112 49 52 4.3 7.0 0.02 1.82 0.05 83 1006.7
20260506230112 49 22 7.0 9.6 0.03 1.90 0.03 83 1006.7
20260506223112 49 62 5.2 7.8 0.03 1.93 0.01 83 1006.7
20260506220112 50 2 4.3 7.0 0.05 1.92 0.00 83 1005.7
20260506213112 50 24 5.2 7.8 0.13 1.90 1.90 82 1005.7
20260506210112 51 70 3.5 5.2 0.18 1.86 1.86 83 1005.7
20260506203112 52 12 2.6 4.3 0.14 1.77 1.77 83 1005.7
20260506200112 52 339 3.5 5.2 0.06 1.69 1.69 83 1005.6
20260506193112 52 9 2.6 4.3 0.03 1.64 1.64 83 1004.6
20260506190113 53 50 3.5 7.0 0.04 1.62 1.62 83 1004.6
20260506183113 53 94 5.2 7.0 0.07 1.61 1.61 83 1004.6
20260506173113 52 346 0.0 3.5 0.01 1.54 1.54 82 1004.6
20260506170132 52 30 0.0 3.5 0.01 1.53 1.53 81 1004.6
20260506163113 52 27 3.5 4.3 0.06 1.53 1.53 80 1004.6
20260506153113 53 106 3.5 5.2 0.05 1.47 1.47 79 1004.6
20260506150113 52 48 4.3 7.8 0.08 1.44 1.44 78 1004.6
20260506143113 53 52 3.5 5.2 0.08 1.42 1.42 79 1004.6
20260506140113 52 62 3.5 11.3 0.01 1.36 1.36 78 1004.6
20260506133113 52 59 3.5 7.0 0.01 1.34 1.34 77 1004.6
20260506130113 52 82 5.2 7.0 0.03 1.34 1.34 78 1004.6
20260506123113 52 56 3.5 7.0 0.04 1.33 1.33 80 1003.6
20260506120113 51 360 3.5 6.1 0.05 1.32 1.32 81 1004.7
20260506113113 50 1 4.3 7.8 0.05 1.29 1.29 80 1004.7
20260506103113 50 45 3.5 5.2 0.02 1.24 1.24 78 1004.7